Weather History for San Angelo, TX

Change the Weather History Date:

Sunday, May 27, 2012

  Actual Average Record
Temperature  
Mean Temperature 80 °F 77 °F  
Max Temperature 88 °F 89 °F 108 °F (2011)
Min Temperature 71 °F 65 °F 53 °F (1961)
Degree Days  
Heating Degree Days 0 0  
Month to date heating degree days 3 8  
Since 1 July heating degree days 1886 2314  
Cooling Degree Days 15 12  
Month to date cooling degree days 303 253  
Year to date cooling degree days 625 409  
Growing Degree Days 30 (Base 50)    
Moisture  
Dew Point 63 °F    
Average Humidity 56    
Maximum Humidity 66    
Minimum Humidity 46    
Precipitation  
Precipitation T in 0.11 in 1.07 in (1952)
Month to date precipitation 4.50 2.38  
Year to date precipitation 12.56 7.58  
Sea Level Pressure  
Sea Level Pressure 29.83 in    
Wind  
Wind Speed 13 mph (South)    
Max Wind Speed 22 mph    
Max Gust Speed 30 mph    
Visibility 10 miles    
Events      
T = Trace of Precipitation, MM = Missing Value Source: NWS Daily Summary

Daily Weather History Graph

Daily Weather History Graph

Search for Another Location

Airport:

Trip Planner

Search our weather history database for the weather conditions in past years. The results will help you decide how hot, cold, wet, or windy it might be!

Date:

Astronomy

May. 27, 2012 Rise Set
Actual Time 6:39 AM CDT 8:39 PM CDT
Civil Twilight 6:12 AM CDT 9:06 PM CDT
Nautical Twilight 5:39 AM CDT 9:39 PM CDT
Astronomical Twilight 5:03 AM CDT 10:15 PM CDT
Moon 12:33 PM CDT (5/27) 12:58 AM CDT (5/27)
Length of Visible Light 14h 54m
Length of Day
13h 59m
Waxing Crescent, 38% of the Moon is Illuminated
May 27
Waxing Crescent
May 28
First Quarter
Jun 4
Full
Jun 11
Last Quarter
Jun 19
New

Hourly Weather History & Observations

Time (CDT) Temp. Heat Index Dew Point Humidity Pressure Visibility Wind Dir Wind Speed Gust Speed Precip Events Conditions
12:51 AM 79.0 °F - 61.0 °F 54% 29.81 in 10.0 mi SSE 18.4 mph 27.6 mph N/A   Clear
1:51 AM 78.1 °F - 62.1 °F 58% 29.82 in 10.0 mi SSE 12.7 mph 21.9 mph N/A   Clear
2:51 AM 75.9 °F - 59.0 °F 56% 29.84 in 10.0 mi SSE 16.1 mph 23.0 mph N/A   Clear
3:51 AM 75.0 °F - 59.0 °F 57% 29.85 in 10.0 mi South 12.7 mph 20.7 mph N/A   Mostly Cloudy
4:51 AM 73.9 °F - 59.0 °F 59% 29.83 in 10.0 mi SSE 12.7 mph 25.3 mph N/A   Clear
5:51 AM 72.0 °F - 57.9 °F 61% 29.82 in 10.0 mi SE 11.5 mph 19.6 mph N/A   Clear
6:51 AM 72.0 °F - 59.0 °F 64% 29.84 in 10.0 mi SSE 10.4 mph 18.4 mph N/A   Clear
7:51 AM 73.0 °F - 61.0 °F 66% 29.86 in 10.0 mi South 11.5 mph 20.7 mph N/A   Clear
8:51 AM 73.9 °F - 61.0 °F 64% 29.87 in 10.0 mi South 12.7 mph 25.3 mph N/A   Clear
9:51 AM 75.9 °F - 61.0 °F 60% 29.88 in 10.0 mi South 19.6 mph 26.5 mph N/A   Clear
10:51 AM 75.9 °F - 63.0 °F 64% 29.88 in 10.0 mi South 15.0 mph 23.0 mph N/A   Overcast
11:51 AM 79.0 °F - 64.0 °F 60% 29.88 in 10.0 mi South 18.4 mph 24.2 mph N/A   Overcast
12:15 PM 78.8 °F - 64.4 °F 61% 29.95 in 10.0 mi South 13.8 mph 21.9 mph N/A   Overcast
12:51 PM 80.1 °F 82.1 °F 66.0 °F 62% 29.87 in 10.0 mi South 16.1 mph 24.2 mph N/A   Overcast
1:51 PM 82.0 °F 84.1 °F 66.0 °F 58% 29.85 in 10.0 mi South 17.3 mph 24.2 mph N/A   Overcast
2:51 PM 84.0 °F 86.3 °F 66.0 °F 55% 29.82 in 10.0 mi South 15.0 mph 23.0 mph N/A   Mostly Cloudy
3:51 PM 84.9 °F 86.6 °F 64.9 °F 51% 29.80 in 10.0 mi SSE 18.4 mph 25.3 mph N/A   Mostly Cloudy
4:51 PM 86.0 °F 88.2 °F 66.2 °F 51% 29.86 in 10.0 mi South 15.0 mph 21.9 mph N/A   Mostly Cloudy
5:51 PM 86.0 °F 87.6 °F 64.9 °F 49% 29.77 in 10.0 mi South 13.8 mph 19.6 mph N/A   Scattered Clouds
6:51 PM 87.1 °F 88.9 °F 64.9 °F 48% 29.76 in 10.0 mi South 12.7 mph 19.6 mph 0.00 in   Scattered Clouds
7:51 PM 84.0 °F 85.4 °F 64.0 °F 51% 29.76 in 10.0 mi South 9.2 mph - N/A   Clear
8:51 PM 84.0 °F 85.4 °F 64.0 °F 51% 29.78 in 10.0 mi South 8.1 mph - N/A   Clear
9:51 PM 82.0 °F 83.4 °F 64.0 °F 54% 29.78 in 10.0 mi SSE 5.8 mph - N/A   Clear
10:51 PM 80.1 °F 81.7 °F 64.0 °F 58% 29.81 in 10.0 mi South 5.8 mph - N/A   Clear
11:51 PM 77.0 °F - 64.0 °F 64% 29.81 in 10.0 mi SSE 4.6 mph - N/A   Clear